DLH6336 EDDF-LOWW

Flight info

Callsign DLH6336
Flight time 1h 2m
Altitude 31000
Route SULUS7S/18 SULUS Z650 VEMUT/N0443F290 DCT BUDEX BUDEX2W
Aircraft A346/H-SDE2E3FGHIJ3J4J5M1RWXY/LB1D1

Departure

Time 2026-05-06 18:02
Airport Frankfurt Main Airport (EDDF)

Arrival

Time 2026-05-06 19:04
Airport Vienna International Airport (LOWW)
Time Latitude Longitude Altitude Speed Heading
2026-05-06 17:11 50.04752 8.56390 370 ft 0 kts 339°
2026-05-06 17:42 50.04747 8.56392 372 ft 0 kts 339°
2026-05-06 17:43 50.04723 8.56406 372 ft 0 kts 339°
2026-05-06 17:43 50.04698 8.56421 371 ft 0 kts 339°
2026-05-06 17:43 50.04681 8.56431 372 ft 0 kts 339°
2026-05-06 17:44 50.04662 8.56442 371 ft 0 kts 339°
2026-05-06 17:44 50.04654 8.56446 372 ft 0 kts 339°
2026-05-06 17:44 50.04644 8.56455 371 ft 0 kts 304°
2026-05-06 17:49 50.04648 8.56446 372 ft 2 kts 296°
2026-05-06 17:49 50.04653 8.56409 373 ft 5 kts 273°
2026-05-06 17:49 50.04644 8.56343 371 ft 8 kts 250°
2026-05-06 17:49 50.04624 8.56256 370 ft 10 kts 250°
2026-05-06 17:50 50.04611 8.56200 372 ft 3 kts 250°
2026-05-06 17:50 50.04607 8.56185 370 ft 0 kts 250°
2026-05-06 17:50 50.04605 8.56174 369 ft 3 kts 249°
2026-05-06 17:50 50.04595 8.56133 371 ft 5 kts 249°
2026-05-06 17:51 50.04577 8.56063 371 ft 8 kts 249°
2026-05-06 17:51 50.04544 8.55972 371 ft 11 kts 221°
2026-05-06 17:51 50.04468 8.55926 369 ft 13 kts 194°
2026-05-06 17:51 50.04398 8.55909 372 ft 10 kts 176°
2026-05-06 17:52 50.04322 8.55941 370 ft 12 kts 160°
2026-05-06 17:52 50.04259 8.55954 367 ft 8 kts 205°
2026-05-06 17:52 50.04221 8.55863 369 ft 12 kts 249°
2026-05-06 17:52 50.04191 8.55740 370 ft 10 kts 249°
2026-05-06 17:53 50.04176 8.55679 371 ft 5 kts 250°
2026-05-06 17:53 50.04163 8.55625 371 ft 6 kts 250°
2026-05-06 17:53 50.04145 8.55544 369 ft 9 kts 250°
2026-05-06 17:53 50.04119 8.55437 369 ft 11 kts 250°
2026-05-06 17:54 50.04096 8.55339 373 ft 8 kts 249°
2026-05-06 17:54 50.04086 8.55298 371 ft 0 kts 249°
2026-05-06 17:54 50.04082 8.55281 373 ft 3 kts 250°
2026-05-06 17:55 50.04070 8.55232 371 ft 6 kts 250°
2026-05-06 17:55 50.04051 8.55154 369 ft 9 kts 250°
2026-05-06 17:55 50.04025 8.55043 370 ft 12 kts 250°
2026-05-06 17:55 50.03993 8.54911 370 ft 14 kts 249°
2026-05-06 17:56 50.03956 8.54759 370 ft 16 kts 249°
2026-05-06 17:56 50.03912 8.54581 368 ft 19 kts 250°
2026-05-06 17:56 50.03867 8.54388 372 ft 19 kts 250°
2026-05-06 17:56 50.03804 8.54222 370 ft 18 kts 240°
2026-05-06 17:57 50.03757 8.54042 371 ft 18 kts 250°
2026-05-06 17:57 50.03713 8.53857 371 ft 18 kts 249°
2026-05-06 17:57 50.03668 8.53668 369 ft 19 kts 249°
2026-05-06 17:57 50.03618 8.53478 371 ft 19 kts 247°
2026-05-06 17:58 50.03574 8.53285 370 ft 19 kts 250°
2026-05-06 17:58 50.03528 8.53098 368 ft 14 kts 250°
2026-05-06 17:58 50.03509 8.53016 371 ft 7 kts 250°
2026-05-06 17:58 50.03490 8.52937 370 ft 8 kts 250°
2026-05-06 17:59 50.03468 8.52846 371 ft 9 kts 245°
2026-05-06 17:59 50.03445 8.52771 371 ft 2 kts 245°
2026-05-06 17:59 50.03445 8.52770 371 ft 0 kts 245°
2026-05-06 18:00 50.03443 8.52762 367 ft 2 kts 245°
2026-05-06 18:00 50.03434 8.52729 373 ft 4 kts 248°
2026-05-06 18:00 50.03420 8.52675 372 ft 6 kts 248°
2026-05-06 18:00 50.03395 8.52607 372 ft 8 kts 218°
2026-05-06 18:01 50.03362 8.52594 372 ft 0 kts 169°
2026-05-06 18:01 50.03342 8.52597 370 ft 5 kts 176°
2026-05-06 18:01 50.03221 8.52595 368 ft 45 kts 180°
2026-05-06 18:01 50.02679 8.52601 373 ft 108 kts 180°
2026-05-06 18:02 50.01735 8.52601 367 ft 160 kts 180°
2026-05-06 18:02 50.00491 8.52620 532 ft 189 kts 182°
2026-05-06 18:02 49.99125 8.52649 991 ft 202 kts 180°
2026-05-06 18:02 49.97688 8.52703 1571 ft 210 kts 181°
2026-05-06 18:03 49.96220 8.52871 2249 ft 214 kts 165°
2026-05-06 18:03 49.94972 8.54076 2826 ft 221 kts 132°
2026-05-06 18:03 49.94297 8.56316 3245 ft 234 kts 104°
2026-05-06 18:03 49.93972 8.58806 3724 ft 242 kts 99°
2026-05-06 18:04 49.93780 8.61367 3879 ft 236 kts 94°
2026-05-06 18:04 49.93726 8.63946 3904 ft 235 kts 92°
2026-05-06 18:04 49.93670 8.66487 3958 ft 238 kts 92°
2026-05-06 18:04 49.93539 8.69093 4394 ft 247 kts 110°
2026-05-06 18:05 49.92659 8.71390 4944 ft 252 kts 138°
2026-05-06 18:05 49.91261 8.73068 5482 ft 262 kts 152°
2026-05-06 18:05 49.89647 8.74532 6050 ft 274 kts 151°
2026-05-06 18:05 49.88178 8.76485 6797 ft 283 kts 131°
2026-05-06 18:06 49.87096 8.79061 7660 ft 286 kts 122°
2026-05-06 18:06 49.86121 8.81775 8503 ft 289 kts 121°
2026-05-06 18:06 49.85147 8.84532 9310 ft 293 kts 121°
2026-05-06 18:06 49.84153 8.87322 10067 ft 298 kts 121°
2026-05-06 18:07 49.83125 8.90179 10596 ft 312 kts 121°
2026-05-06 18:07 49.82032 8.93198 11010 ft 328 kts 121°
2026-05-06 18:07 49.80880 8.96366 11435 ft 345 kts 121°
2026-05-06 18:07 49.79666 8.99698 11810 ft 363 kts 121°
2026-05-06 18:08 49.78386 9.03200 12166 ft 381 kts 121°
2026-05-06 18:08 49.77114 9.06875 12713 ft 392 kts 117°
2026-05-06 18:08 49.76063 9.10799 13571 ft 395 kts 110°
2026-05-06 18:08 49.75275 9.14884 14360 ft 398 kts 106°
2026-05-06 18:09 49.74602 9.19068 15073 ft 403 kts 104°
2026-05-06 18:09 49.73940 9.23252 15783 ft 406 kts 105°
2026-05-06 18:09 49.73254 9.27542 16526 ft 410 kts 105°
2026-05-06 18:09 49.72748 9.31906 17186 ft 417 kts 92°
2026-05-06 18:10 49.73239 9.36372 17852 ft 423 kts 71°
2026-05-06 18:10 49.74356 9.40587 18588 ft 425 kts 67°
2026-05-06 18:10 49.75569 9.44786 19157 ft 430 kts 66°
2026-05-06 18:10 49.76773 9.49051 19745 ft 434 kts 68°
2026-05-06 18:11 49.77957 9.53407 20318 ft 437 kts 68°
2026-05-06 18:11 49.78722 9.56299 20709 ft 440 kts 69°
2026-05-06 18:11 49.80260 9.62243 21407 ft 447 kts 69°
2026-05-06 18:11 49.81405 9.66747 21960 ft 451 kts 70°
2026-05-06 18:12 49.82554 9.71296 22487 ft 455 kts 70°
2026-05-06 18:12 49.83707 9.75887 23023 ft 459 kts 70°
2026-05-06 18:12 49.84475 9.78954 23379 ft 461 kts 70°
2026-05-06 18:12 49.85640 9.83616 23845 ft 465 kts 70°
2026-05-06 18:13 49.86811 9.88311 24331 ft 468 kts 70°
2026-05-06 18:13 49.87987 9.93038 24835 ft 471 kts 70°
2026-05-06 18:13 49.89166 9.97791 25325 ft 473 kts 70°
2026-05-06 18:13 49.90734 10.04127 25942 ft 477 kts 71°
2026-05-06 18:14 49.91937 10.08987 26340 ft 482 kts 71°
2026-05-06 18:14 49.92751 10.12289 26666 ft 483 kts 71°
2026-05-06 18:14 49.93948 10.17162 27324 ft 481 kts 72°
2026-05-06 18:14 49.95016 10.22088 28002 ft 476 kts 81°
2026-05-06 18:15 49.95211 10.27158 28619 ft 465 kts 97°
2026-05-06 18:15 49.94920 10.32071 29371 ft 461 kts 100°
2026-05-06 18:15 49.94627 10.37113 29888 ft 464 kts 99°
2026-05-06 18:15 49.94361 10.42058 30186 ft 468 kts 99°
2026-05-06 18:16 49.94088 10.47125 30531 ft 471 kts 99°
2026-05-06 18:16 49.93809 10.52220 30767 ft 474 kts 99°
2026-05-06 18:16 49.93227 10.62500 30788 ft 478 kts 100°
2026-05-06 18:17 49.92624 10.72808 30793 ft 480 kts 99°
2026-05-06 18:17 49.92011 10.83149 30795 ft 480 kts 100°
2026-05-06 18:18 49.91388 10.93480 30793 ft 480 kts 100°
2026-05-06 18:18 49.90753 11.03853 30784 ft 483 kts 100°
2026-05-06 18:19 49.90107 11.14245 30792 ft 483 kts 100°
2026-05-06 18:19 49.89452 11.24633 30787 ft 483 kts 100°
2026-05-06 18:20 49.88787 11.35025 30786 ft 483 kts 100°
2026-05-06 18:20 49.88116 11.45375 30763 ft 486 kts 101°
2026-05-06 18:21 49.87422 11.55907 30776 ft 487 kts 101°
2026-05-06 18:21 49.86723 11.66373 30772 ft 487 kts 101°
2026-05-06 18:22 49.86015 11.76839 30770 ft 487 kts 101°
2026-05-06 18:22 49.85304 11.87215 30741 ft 487 kts 101°
2026-05-06 18:23 49.84574 11.97720 30761 ft 489 kts 101°
2026-05-06 18:23 49.83832 12.08231 30762 ft 489 kts 101°
2026-05-06 18:24 49.83081 12.18733 30763 ft 489 kts 101°
2026-05-06 18:24 49.82320 12.29227 30759 ft 489 kts 101°
2026-05-06 18:25 49.81313 12.39636 30751 ft 485 kts 109°
2026-05-06 18:25 49.79107 12.49441 30755 ft 476 kts 121°
2026-05-06 18:26 49.75777 12.58168 30757 ft 468 kts 130°
2026-05-06 18:26 49.72029 12.66492 30750 ft 471 kts 131°
2026-05-06 18:27 49.68237 12.74878 30736 ft 473 kts 131°
2026-05-06 18:27 49.64452 12.83271 30750 ft 473 kts 131°
2026-05-06 18:28 49.60657 12.91683 30752 ft 473 kts 131°
2026-05-06 18:28 49.56862 13.00074 30751 ft 473 kts 131°
2026-05-06 18:29 49.53078 13.08417 30749 ft 473 kts 131°
2026-05-06 18:29 49.49283 13.16755 30752 ft 473 kts 131°
2026-05-06 18:30 49.45449 13.25156 30753 ft 473 kts 131°
2026-05-06 18:30 49.41641 13.33472 30744 ft 468 kts 131°
2026-05-06 18:31 49.37972 13.41476 30741 ft 447 kts 131°
2026-05-06 18:31 49.36218 13.45298 30742 ft 435 kts 131°
2026-05-06 18:31 49.34462 13.49100 30727 ft 435 kts 131°
2026-05-06 18:32 49.30929 13.56726 30743 ft 436 kts 131°
2026-05-06 18:32 49.27397 13.64344 30741 ft 436 kts 131°
2026-05-06 18:33 49.23859 13.71960 30743 ft 436 kts 131°
2026-05-06 18:33 49.20322 13.79551 30738 ft 436 kts 131°
2026-05-06 18:34 49.16822 13.87042 30717 ft 437 kts 132°
2026-05-06 18:34 49.13229 13.94710 30721 ft 437 kts 132°
2026-05-06 18:35 49.09666 14.02297 30725 ft 437 kts 132°
2026-05-06 18:35 49.06103 14.09853 30718 ft 437 kts 132°
2026-05-06 18:36 49.02514 14.17441 30723 ft 439 kts 132°
2026-05-06 18:36 48.98921 14.25032 30696 ft 443 kts 133°
2026-05-06 18:37 48.95299 14.32645 30709 ft 443 kts 133°
2026-05-06 18:37 48.91578 14.40163 30711 ft 441 kts 135°
2026-05-06 18:38 48.87989 14.47237 30479 ft 430 kts 135°
2026-05-06 18:38 48.86168 14.50829 30147 ft 425 kts 135°
2026-05-06 18:38 48.84367 14.54375 29704 ft 422 kts 135°
2026-05-06 18:39 48.82573 14.57904 29160 ft 420 kts 135°
2026-05-06 18:39 48.80793 14.61407 28662 ft 418 kts 135°
2026-05-06 18:39 48.79020 14.64893 28177 ft 415 kts 135°
2026-05-06 18:40 48.75450 14.71893 27302 ft 408 kts 135°
2026-05-06 18:40 48.73709 14.75303 26963 ft 403 kts 135°
2026-05-06 18:40 48.72016 14.78626 26792 ft 393 kts 135°
2026-05-06 18:40 48.70362 14.81867 26606 ft 383 kts 135°
2026-05-06 18:41 48.68742 14.85031 26387 ft 375 kts 136°
2026-05-06 18:41 48.67128 14.88171 26036 ft 371 kts 136°
2026-05-06 18:41 48.65544 14.91243 25625 ft 369 kts 136°
2026-05-06 18:41 48.63971 14.94288 25219 ft 366 kts 135°
2026-05-06 18:42 48.62403 14.97326 24851 ft 363 kts 135°
2026-05-06 18:42 48.60857 15.00326 24491 ft 360 kts 135°
2026-05-06 18:42 48.59374 15.03378 24100 ft 363 kts 127°
2026-05-06 18:42 48.58363 15.06930 23723 ft 372 kts 112°
2026-05-06 18:43 48.57694 15.10710 23398 ft 370 kts 110°
2026-05-06 18:43 48.57078 15.14455 23000 ft 367 kts 110°
2026-05-06 18:43 48.56462 15.18186 22575 ft 365 kts 110°
2026-05-06 18:43 48.55836 15.21902 22156 ft 363 kts 111°
2026-05-06 18:44 48.55207 15.25580 21759 ft 360 kts 111°
2026-05-06 18:44 48.54576 15.29236 21333 ft 358 kts 111°
2026-05-06 18:44 48.53945 15.32867 20912 ft 356 kts 110°
2026-05-06 18:44 48.53310 15.36491 20486 ft 356 kts 110°
2026-05-06 18:45 48.52689 15.40053 20089 ft 354 kts 110°
2026-05-06 18:45 48.52113 15.43659 19707 ft 355 kts 105°
2026-05-06 18:45 48.51787 15.47355 19338 ft 355 kts 100°
2026-05-06 18:45 48.51578 15.51071 18958 ft 354 kts 99°
2026-05-06 18:46 48.51389 15.54785 18591 ft 352 kts 99°
2026-05-06 18:46 48.51195 15.58462 18243 ft 350 kts 99°
2026-05-06 18:46 48.50993 15.62118 17890 ft 348 kts 99°
2026-05-06 18:46 48.50788 15.65753 17477 ft 346 kts 99°
2026-05-06 18:47 48.50581 15.69368 17104 ft 344 kts 99°
2026-05-06 18:47 48.50372 15.72949 16736 ft 341 kts 99°
2026-05-06 18:47 48.50164 15.76503 16362 ft 338 kts 99°
2026-05-06 18:47 48.49956 15.80046 16019 ft 335 kts 99°
2026-05-06 18:48 48.49751 15.83529 15736 ft 330 kts 99°
2026-05-06 18:48 48.49551 15.86938 15570 ft 321 kts 99°
2026-05-06 18:48 48.49354 15.90251 15405 ft 313 kts 99°
2026-05-06 18:48 48.49161 15.93479 15249 ft 304 kts 99°
2026-05-06 18:49 48.48972 15.96621 15087 ft 296 kts 99°
2026-05-06 18:49 48.48785 15.99678 14870 ft 290 kts 99°
2026-05-06 18:49 48.48601 16.02659 14578 ft 287 kts 99°
2026-05-06 18:49 48.48417 16.05653 14273 ft 285 kts 99°
2026-05-06 18:50 48.48036 16.08567 13929 ft 277 kts 122°
2026-05-06 18:50 48.46868 16.10737 13619 ft 263 kts 150°
2026-05-06 18:50 48.45264 16.11956 13300 ft 256 kts 161°
2026-05-06 18:50 48.43631 16.12991 12851 ft 255 kts 161°
2026-05-06 18:51 48.41999 16.14032 12315 ft 254 kts 160°
2026-05-06 18:51 48.40385 16.15080 11820 ft 250 kts 161°
2026-05-06 18:51 48.38800 16.16113 11337 ft 247 kts 160°
2026-05-06 18:51 48.37221 16.17146 10805 ft 247 kts 160°
2026-05-06 18:52 48.35649 16.18181 10327 ft 247 kts 161°
2026-05-06 18:52 48.34079 16.19211 10097 ft 246 kts 161°
2026-05-06 18:52 48.32511 16.20245 9851 ft 246 kts 159°
2026-05-06 18:52 48.31120 16.21772 9554 ft 254 kts 132°
2026-05-06 18:53 48.30306 16.24181 9321 ft 263 kts 104°
2026-05-06 18:53 48.30300 16.26959 9064 ft 270 kts 79°
2026-05-06 18:53 48.30806 16.29692 8833 ft 272 kts 75°
2026-05-06 18:53 48.31482 16.32345 8555 ft 272 kts 57°
2026-05-06 18:54 48.32822 16.34342 8281 ft 269 kts 27°
2026-05-06 18:54 48.34589 16.35163 8013 ft 264 kts 357°
2026-05-06 18:54 48.36338 16.34762 7797 ft 256 kts 340°
2026-05-06 18:54 48.38047 16.33960 7545 ft 252 kts 339°
2026-05-06 18:55 48.39687 16.33176 7299 ft 249 kts 339°
2026-05-06 18:55 48.41339 16.32428 7038 ft 247 kts 339°
2026-05-06 18:55 48.43041 16.32108 6773 ft 251 kts
2026-05-06 18:55 48.44640 16.33100 6525 ft 251 kts 40°
2026-05-06 18:56 48.45673 16.35157 6279 ft 246 kts 72°
2026-05-06 18:56 48.45850 16.37645 6025 ft 236 kts 107°
2026-05-06 18:56 48.45242 16.39872 5794 ft 227 kts 126°
2026-05-06 18:56 48.44406 16.41875 5558 ft 225 kts 129°
2026-05-06 18:57 48.43370 16.43573 5316 ft 217 kts 147°
2026-05-06 18:57 48.42113 16.44747 5085 ft 210 kts 161°
2026-05-06 18:57 48.40763 16.45530 4992 ft 208 kts 166°
2026-05-06 18:57 48.39381 16.46182 4978 ft 209 kts 167°
2026-05-06 18:58 48.37989 16.46798 4986 ft 207 kts 168°
2026-05-06 18:58 48.36605 16.47395 4976 ft 207 kts 168°
2026-05-06 18:58 48.35216 16.47987 4980 ft 208 kts 169°
2026-05-06 18:58 48.33819 16.48577 4938 ft 208 kts 169°
2026-05-06 18:59 48.32429 16.49165 4704 ft 207 kts 170°
2026-05-06 18:59 48.31050 16.49747 4382 ft 203 kts 170°
2026-05-06 18:59 48.29735 16.50304 4107 ft 190 kts 170°
2026-05-06 18:59 48.28497 16.50828 3910 ft 181 kts 171°
2026-05-06 19:00 48.27310 16.51331 3692 ft 173 kts 172°
2026-05-06 19:00 48.26185 16.51807 3453 ft 163 kts 172°
2026-05-06 19:00 48.25103 16.52261 3246 ft 160 kts 172°
2026-05-06 19:00 48.24394 16.52559 3109 ft 159 kts 172°
2026-05-06 19:01 48.22971 16.53158 2830 ft 157 kts 171°
2026-05-06 19:01 48.21935 16.53596 2629 ft 156 kts 171°
2026-05-06 19:01 48.20899 16.54035 2424 ft 154 kts 170°
2026-05-06 19:01 48.19863 16.54475 2215 ft 153 kts 170°
2026-05-06 19:02 48.18861 16.54902 1990 ft 144 kts 170°
2026-05-06 19:02 48.17940 16.55295 1789 ft 133 kts 170°
2026-05-06 19:02 48.17050 16.55670 1639 ft 132 kts 169°
2026-05-06 19:02 48.16167 16.56040 1455 ft 133 kts 168°
2026-05-06 19:03 48.15263 16.56423 1313 ft 136 kts 165°
2026-05-06 19:03 48.14342 16.56816 1139 ft 140 kts 165°
2026-05-06 19:03 48.13408 16.57219 938 ft 138 kts 166°
2026-05-06 19:03 48.12487 16.57607 737 ft 136 kts 166°
2026-05-06 19:04 48.11587 16.57985 620 ft 130 kts 165°
2026-05-06 19:04 48.10893 16.58277 627 ft 76 kts 164°
2026-05-06 19:04 48.10480 16.58449 626 ft 56 kts 165°
2026-05-06 19:04 48.10152 16.58584 633 ft 42 kts 165°
2026-05-06 19:05 48.09901 16.58607 633 ft 33 kts 188°
2026-05-06 19:05 48.09727 16.58564 636 ft 20 kts 190°
2026-05-06 19:05 48.09657 16.58530 637 ft 9 kts 219°
2026-05-06 19:05 48.09637 16.58442 635 ft 10 kts 281°
2026-05-06 19:06 48.09687 16.58375 636 ft 11 kts 334°
2026-05-06 19:06 48.09773 16.58332 638 ft 14 kts 343°
2026-05-06 19:06 48.09881 16.58287 638 ft 18 kts 344°
2026-05-06 19:06 48.10018 16.58230 631 ft 23 kts 344°
2026-05-06 19:07 48.10177 16.58161 629 ft 25 kts 345°
2026-05-06 19:07 48.10272 16.58121 626 ft 18 kts 344°
2026-05-06 19:07 48.10326 16.58098 632 ft 0 kts 344°
2026-05-06 19:08 48.10330 16.58096 631 ft 2 kts 344°
2026-05-06 19:08 48.10335 16.58094 634 ft 0 kts 344°
2026-05-06 19:08 48.10347 16.58089 633 ft 3 kts 344°
2026-05-06 19:09 48.10382 16.58074 629 ft 7 kts 344°
2026-05-06 19:09 48.10418 16.58059 633 ft 9 kts 344°
2026-05-06 19:09 48.10493 16.58028 633 ft 13 kts 344°
2026-05-06 19:09 48.10591 16.57986 633 ft 16 kts 344°
2026-05-06 19:10 48.10706 16.57938 632 ft 19 kts 344°
2026-05-06 19:10 48.10847 16.57878 630 ft 23 kts 344°
2026-05-06 19:10 48.11002 16.57812 636 ft 23 kts 344°
2026-05-06 19:10 48.11117 16.57762 632 ft 9 kts 342°
2026-05-06 19:11 48.11166 16.57686 632 ft 12 kts 296°
2026-05-06 19:11 48.11208 16.57562 626 ft 15 kts 296°
2026-05-06 19:11 48.11257 16.57412 634 ft 17 kts 296°
2026-05-06 19:11 48.11312 16.57241 631 ft 20 kts 295°
2026-05-06 19:12 48.11372 16.57057 635 ft 21 kts 296°
2026-05-06 19:12 48.11424 16.56903 629 ft 6 kts 310°
2026-05-06 19:12 48.11461 16.56879 633 ft 3 kts
2026-05-06 19:12 48.11469 16.56880 632 ft 6 kts
2026-05-06 19:13 48.11539 16.56919 628 ft 13 kts 15°
2026-05-06 19:13 48.11603 16.56881 629 ft 10 kts 345°
2026-05-06 19:13 48.11673 16.56907 623 ft 0 kts 24°
2026-05-06 19:14 48.11674 16.56907 623 ft 0 kts 24°
2026-05-06 19:16 48.11674 16.56908 623 ft 0 kts 24°
2026-05-06 19:21 48.11675 16.56908 623 ft 0 kts 24°